Regional Weather Roundup
Issued by NWS

Home | Current Version | Previous Version | Text Only | Print | Product List | Glossary On
Versions: 1 2 3 4 5 6 7 8 9 10 11 12 13 14 15 16 17 18 19 20 21 22 23 24 25 26 27 28 29 30 31 32 33 34 35 36 37 38 39 40 41 42 43 44 45 46 47 48 49 50
000
ASUS46 KPQR 300910
RWROR

OREGON REGIONAL WEATHER ROUNDUP
NATIONAL WEATHER SERVICE PORTLAND OR
200 AM PDT TUE JUN 30 2015

NOTE: "FAIR" INDICATES FEW OR NO CLOUDS BELOW 12,000 FEET WITH
NO SIGNIFICANT WEATHER AND/OR OBSTRUCTIONS TO VISIBILITY.

ORZ001>013-301000-
NORTHWEST OREGON


CITY           SKY/WX    TMP DP  RH WIND       PRES   REMARKS
ASTORIA        CLOUDY    59  58  96 CALM      30.11S FOG
NEWPORT        CLOUDY    55  55 100 CALM      30.14S FOG
PORTLAND       CLEAR     64  57  78 NW5       30.07R
VANCOUVER WA   CLEAR     63  55  75 CALM      30.06S
SCAPPOOSE      CLEAR     59  55  87 SE3       30.06R
HILLSBORO      CLEAR     63  57  81 W3        30.06R
AURORA         CLEAR     63  58  83 CALM      30.07R
MCMINNVILLE    CLEAR     62  56  80 W7        30.07R
SALEM          CLEAR     66  55  67 W3        30.06R
CORVALLIS      CLEAR     61  54  77 NW12      30.08R
EUGENE         CLEAR     62  55  77 SW5       30.07S
$$

ORZ021-028-301000-
SOUTHWEST OREGON


CITY           SKY/WX    TMP DP  RH WIND       PRES   REMARKS
NORTH BEND     CLOUDY    57  57 100 N5        30.12S
BROOKINGS      FOG       55  55 100 CALM      30.06F VSB 1/4
ROSEBURG       CLEAR     66  55  67 NE5       30.08R
SEXTON SUMMIT  LGT RAIN  67  49  52 NE10      30.16S
MEDFORD        CLEAR     75  58  55 CALM      30.03S
$$

ORZ014>016-041-301000-
COLUMBIA GORGE


CITY           SKY/WX    TMP DP  RH WIND       PRES   REMARKS
TROUTDALE      CLEAR     64  57  78 CALM      30.06R
THE DALLES     CLEAR     76  59  55 N16       29.95S
$$

ORZ029>031-041-044-049-050-061>064-502-503-505>511-301000-
EASTERN OREGON


CITY           SKY/WX    TMP DP  RH WIND       PRES   REMARKS
REDMOND        CLEAR     61  51  70 S3        30.13S
BEND             N/A    N/A N/A N/A MISG        N/A
PRINEVILLE     CLEAR     66  50  55 CALM      30.13S
KLAMATH FALLS  CLEAR     60  53  77 CALM      30.16S
LAKEVIEW       CLEAR     57  37  47 NW10      30.19R
HERMISTON      CLEAR     76  58  53 SW8       29.94R
PENDLETON      PTCLDY    74  55  51 NW5       29.99R
JOHN DAY       CLEAR     71  48  44 W7        30.14S
MEACHAM        CLEAR     60  55  83 CALM      30.14R
LA GRANDE      CLEAR     77  48  36 NW16      30.05R
BAKER CITY     CLEAR     64  53  67 W7        30.07S
BURNS          CLEAR     72  49  44 W13       30.11S
ROME             N/A     75  50  41 SE7       30.07S
ONTARIO        PTCLDY    86  52  30 NW17      29.93S
$$



USA.gov is the U.S. government's official web portal to all federal, state and local government web resources and services.